Time,TemperatureF,DewpointF,PressureIn,WindDirection,WindDirectionDegrees,WindSpeedMPH,WindSpeedGustMPH,Humidity,HourlyPrecipIn,Conditions,Clouds,dailyrainin,SolarRadiationWatts/m^2,SoftwareType,DateUTC
2013-12-09 00:00:00,26.5,19.6,30.49,N/A,-737280,0.0,-999.0,75,0.00,,,0.01,0,Wunderground v.1.15,2013-12-09 05:00:00,
2013-12-09 00:01:00,26.5,19.6,30.49,NNW,342,0.0,0.0,75,0.00,,,0.00,0,Wunderground v.1.15,2013-12-09 05:01:00,
2013-12-09 00:05:00,26.5,19.3,30.49,NNW,342,0.0,0.0,74,0.00,,,0.00,0,Wunderground v.1.15,2013-12-09 05:05:00,
2013-12-09 00:10:00,26.5,19.3,30.49,N/A,-737280,0.0,-999.0,74,0.00,,,0.01,0,Wunderground v.1.15,2013-12-09 05:10:00,
2013-12-09 00:11:00,26.5,19.3,30.49,NNW,342,0.0,0.0,74,0.00,,,0.00,0,Wunderground v.1.15,2013-12-09 05:11:00,
2013-12-09 00:15:00,26.5,19.6,30.49,N/A,-737280,0.0,-999.0,75,0.00,,,0.01,0,Wunderground v.1.15,2013-12-09 05:15:00,
2013-12-09 00:16:00,26.6,19.7,30.49,NNW,342,0.0,0.0,75,0.00,,,0.00,0,Wunderground v.1.15,2013-12-09 05:16:00,
2013-12-09 00:20:00,26.4,19.9,30.48,N/A,-737280,0.0,-999.0,76,0.00,,,0.01,0,Wunderground v.1.15,2013-12-09 05:20:00,
2013-12-09 00:25:00,26.3,19.8,30.48,NNW,342,0.0,0.0,76,0.00,,,0.00,0,Wunderground v.1.15,2013-12-09 05:25:00,
2013-12-09 00:30:00,26.3,19.8,30.48,N/A,-737280,0.0,-999.0,76,0.00,,,0.01,0,Wunderground v.1.15,2013-12-09 05:30:00,
2013-12-09 00:35:00,26.4,19.5,30.48,N/A,-737280,0.0,-999.0,75,0.00,,,0.01,0,Wunderground v.1.15,2013-12-09 05:35:00,
2013-12-09 00:36:00,26.4,19.5,30.48,NNW,342,0.0,0.0,75,0.00,,,0.00,0,Wunderground v.1.15,2013-12-09 05:36:00,
2013-12-09 00:40:00,26.4,19.2,30.48,N/A,-737280,0.0,-999.0,74,0.00,,,0.01,0,Wunderground v.1.15,2013-12-09 05:40:00,
2013-12-09 00:45:00,26.3,19.8,30.47,N/A,-737280,0.0,-999.0,76,0.00,,,0.01,0,Wunderground v.1.15,2013-12-09 05:45:00,
2013-12-09 00:46:00,26.3,19.8,30.47,NNW,342,0.0,0.0,76,0.00,,,0.00,0,Wunderground v.1.15,2013-12-09 05:46:00,
2013-12-09 00:50:00,26.3,20.1,30.47,N/A,-737280,0.0,-999.0,77,0.00,,,0.01,0,Wunderground v.1.15,2013-12-09 05:50:00,
2013-12-09 00:55:00,26.2,19.7,30.47,N/A,-737280,0.0,-999.0,76,0.00,,,0.01,0,Wunderground v.1.15,2013-12-09 05:55:00,
2013-12-09 01:00:00,26.2,19.7,30.47,N/A,-737280,0.0,-999.0,76,0.00,,,0.01,0,Wunderground v.1.15,2013-12-09 06:00:00,
2013-12-09 01:05:00,26.2,19.7,30.46,N/A,-737280,0.0,-999.0,76,0.00,,,0.01,0,Wunderground v.1.15,2013-12-09 06:05:00,
2013-12-09 01:10:00,26.3,19.5,30.46,N/A,-737280,0.0,-999.0,75,0.00,,,0.01,0,Wunderground v.1.15,2013-12-09 06:10:00,
2013-12-09 01:15:00,26.3,19.8,30.46,N/A,-737280,0.0,-999.0,76,0.00,,,0.01,0,Wunderground v.1.15,2013-12-09 06:15:00,
2013-12-09 01:20:00,26.3,19.1,30.46,N/A,-737280,0.0,-999.0,74,0.00,,,0.01,0,Wunderground v.1.15,2013-12-09 06:20:00,
2013-12-09 01:25:00,26.3,19.1,30.46,N/A,-737280,0.0,-999.0,74,0.00,,,0.01,0,Wunderground v.1.15,2013-12-09 06:25:00,
2013-12-09 01:30:00,26.3,18.8,30.46,N/A,-737280,0.0,-999.0,73,0.00,,,0.01,0,Wunderground v.1.15,2013-12-09 06:30:00,
2013-12-09 01:35:00,26.3,18.5,30.46,N/A,-737280,0.0,-999.0,72,0.00,,,0.01,0,Wunderground v.1.15,2013-12-09 06:35:00,
2013-12-09 01:40:00,26.3,18.5,30.46,N/A,-737280,0.0,-999.0,72,0.00,,,0.01,0,Wunderground v.1.15,2013-12-09 06:40:00,
2013-12-09 01:45:00,26.3,18.5,30.46,N/A,-737280,0.0,-999.0,72,0.00,,,0.01,0,Wunderground v.1.15,2013-12-09 06:45:00,
2013-12-09 01:50:00,26.3,17.8,30.45,N/A,-737280,0.0,-999.0,70,0.00,,,0.01,0,Wunderground v.1.15,2013-12-09 06:50:00,
2013-12-09 01:55:00,26.3,18.2,30.45,N/A,-737280,0.0,-999.0,71,0.00,,,0.01,0,Wunderground v.1.15,2013-12-09 06:55:00,
2013-12-09 02:00:00,26.3,17.8,30.45,N/A,-737280,0.0,-999.0,70,0.00,,,0.01,0,Wunderground v.1.15,2013-12-09 07:00:00,
2013-12-09 02:05:00,26.2,18.1,30.45,N/A,-737280,0.0,-999.0,71,0.00,,,0.01,0,Wunderground v.1.15,2013-12-09 07:05:00,
2013-12-09 02:10:00,26.2,18.1,30.45,N/A,-737280,0.0,-999.0,71,0.00,,,0.01,0,Wunderground v.1.15,2013-12-09 07:10:00,
2013-12-09 02:15:00,26.1,17.6,30.45,N/A,-737280,0.0,-999.0,70,0.00,,,0.01,0,Wunderground v.1.15,2013-12-09 07:15:00,
2013-12-09 02:20:00,26.2,18.4,30.44,N/A,-737280,0.0,-999.0,72,0.00,,,0.01,0,Wunderground v.1.15,2013-12-09 07:20:00,
2013-12-09 02:25:00,26.0,18.2,30.44,N/A,-737280,0.0,-999.0,72,0.00,,,0.01,0,Wunderground v.1.15,2013-12-09 07:25:00,
2013-12-09 02:30:00,25.8,18.3,30.44,N/A,-737280,0.0,-999.0,73,0.00,,,0.01,0,Wunderground v.1.15,2013-12-09 07:30:00,
2013-12-09 02:35:00,25.7,18.9,30.45,N/A,-737280,0.0,-999.0,75,0.00,,,0.01,0,Wunderground v.1.15,2013-12-09 07:35:00,
2013-12-09 02:40:00,25.4,18.9,30.44,N/A,-737280,0.0,-999.0,76,0.00,,,0.01,0,Wunderground v.1.15,2013-12-09 07:40:00,
2013-12-09 02:45:00,25.0,18.8,30.44,ENE,68,0.0,-999.0,77,0.00,,,0.01,0,Wunderground v.1.15,2013-12-09 07:45:00,
2013-12-09 02:50:00,24.7,19.1,30.44,N/A,-737280,0.0,-999.0,79,0.00,,,0.01,0,Wunderground v.1.15,2013-12-09 07:50:00,
2013-12-09 02:55:00,24.5,19.5,30.43,N/A,-737280,0.0,-999.0,81,0.00,,,0.01,0,Wunderground v.1.15,2013-12-09 07:55:00,
2013-12-09 03:00:00,24.3,19.6,30.43,N/A,-737280,0.0,-999.0,82,0.00,,,0.01,0,Wunderground v.1.15,2013-12-09 08:00:00,
2013-12-09 03:05:00,24.1,19.7,30.43,N/A,-737280,0.0,-999.0,83,0.00,,,0.01,0,Wunderground v.1.15,2013-12-09 08:05:00,
2013-12-09 03:10:00,24.0,19.9,30.43,N/A,-737280,0.0,-999.0,84,0.00,,,0.01,0,Wunderground v.1.15,2013-12-09 08:10:00,
2013-12-09 03:15:00,23.8,19.9,30.43,N/A,-737280,0.0,-999.0,85,0.00,,,0.01,0,Wunderground v.1.15,2013-12-09 08:15:00,
2013-12-09 03:20:00,23.7,20.1,30.43,N/A,-737280,0.0,-999.0,86,0.00,,,0.01,0,Wunderground v.1.15,2013-12-09 08:20:00,
2013-12-09 03:25:00,23.7,20.4,30.42,N/A,-737280,0.0,-999.0,87,0.01,,,0.01,0,Wunderground v.1.15,2013-12-09 08:25:00,
2013-12-09 03:30:00,23.7,20.4,30.42,N/A,-737280,0.0,-999.0,87,0.01,,,0.01,0,Wunderground v.1.15,2013-12-09 08:30:00,
2013-12-09 03:35:00,23.7,20.7,30.42,N/A,-737280,0.0,-999.0,88,0.01,,,0.01,0,Wunderground v.1.15,2013-12-09 08:35:00,
2013-12-09 03:40:00,23.7,20.7,30.42,N/A,-737280,0.0,-999.0,88,0.01,,,0.01,0,Wunderground v.1.15,2013-12-09 08:40:00,
2013-12-09 03:45:00,23.8,21.0,30.41,N/A,-737280,0.0,-999.0,89,0.01,,,0.01,0,Wunderground v.1.15,2013-12-09 08:45:00,
2013-12-09 03:50:00,23.7,20.9,30.41,ENE,68,0.0,-999.0,89,0.01,,,0.01,0,Wunderground v.1.15,2013-12-09 08:50:00,
2013-12-09 03:55:00,23.6,20.8,30.41,N/A,-737280,0.0,-999.0,89,0.01,,,0.01,0,Wunderground v.1.15,2013-12-09 08:55:00,
2013-12-09 04:00:00,23.5,20.7,30.40,N/A,-737280,0.0,-999.0,89,0.01,,,0.01,0,Wunderground v.1.15,2013-12-09 09:00:00,
2013-12-09 04:05:00,23.5,21.0,30.40,NNW,338,0.0,-999.0,90,0.01,,,0.01,0,Wunderground v.1.15,2013-12-09 09:05:00,
2013-12-09 04:10:00,23.5,21.0,30.40,North,0,0.0,-999.0,90,0.01,,,0.01,0,Wunderground v.1.15,2013-12-09 09:10:00,
2013-12-09 04:15:00,23.5,21.0,30.40,North,0,0.0,-999.0,90,0.01,,,0.01,0,Wunderground v.1.15,2013-12-09 09:15:00,
2013-12-09 04:20:00,23.5,21.0,30.40,N/A,-737280,0.0,-999.0,90,0.01,,,0.01,0,Wunderground v.1.15,2013-12-09 09:20:00,
2013-12-09 04:25:00,23.6,21.1,30.39,North,0,0.0,-999.0,90,0.00,,,0.01,0,Wunderground v.1.15,2013-12-09 09:25:00,
2013-12-09 04:30:00,23.6,21.1,30.39,N/A,-737280,0.0,-999.0,90,0.00,,,0.01,0,Wunderground v.1.15,2013-12-09 09:30:00,
2013-12-09 04:35:00,23.7,21.2,30.39,N/A,-737280,0.0,-999.0,90,0.00,,,0.01,0,Wunderground v.1.15,2013-12-09 09:35:00,
2013-12-09 04:40:00,23.7,21.5,30.38,N/A,-737280,0.0,-999.0,91,0.00,,,0.01,0,Wunderground v.1.15,2013-12-09 09:40:00,
2013-12-09 04:45:00,23.7,21.5,30.38,North,0,0.0,-999.0,91,0.00,,,0.01,0,Wunderground v.1.15,2013-12-09 09:45:00,
2013-12-09 04:50:00,23.7,21.5,30.37,N/A,-737280,0.0,-999.0,91,0.00,,,0.01,0,Wunderground v.1.15,2013-12-09 09:50:00,
2013-12-09 04:55:00,23.7,21.5,30.37,North,0,0.0,-999.0,91,0.00,,,0.01,0,Wunderground v.1.15,2013-12-09 09:55:00,
2013-12-09 05:00:00,23.7,21.5,30.37,N/A,-737280,0.0,-999.0,91,0.00,,,0.01,0,Wunderground v.1.15,2013-12-09 10:00:00,
2013-12-09 05:05:00,23.8,21.6,30.36,N/A,-737280,0.0,-999.0,91,0.00,,,0.01,0,Wunderground v.1.15,2013-12-09 10:05:00,
2013-12-09 05:10:00,23.7,21.5,30.36,N/A,-737280,0.0,-999.0,91,0.00,,,0.01,0,Wunderground v.1.15,2013-12-09 10:10:00,
2013-12-09 05:15:00,23.7,21.5,30.35,N/A,-737280,0.0,-999.0,91,0.00,,,0.01,0,Wunderground v.1.15,2013-12-09 10:15:00,
2013-12-09 05:20:00,23.8,21.8,30.36,North,0,0.0,-999.0,92,0.00,,,0.01,0,Wunderground v.1.15,2013-12-09 10:20:00,
2013-12-09 05:25:00,23.8,21.8,30.35,N/A,-737280,0.0,-999.0,92,0.00,,,0.01,0,Wunderground v.1.15,2013-12-09 10:25:00,
2013-12-09 05:30:00,23.8,21.8,30.35,N/A,-737280,0.0,-999.0,92,0.00,,,0.01,0,Wunderground v.1.15,2013-12-09 10:30:00,
2013-12-09 05:44:00,23.9,21.9,30.35,N/A,-737280,0.0,-999.0,92,0.00,,,0.01,0,Wunderground v.1.15,2013-12-09 10:44:00,
2013-12-09 05:50:00,24.2,22.2,30.35,WNW,300,0.0,0.0,92,0.00,,,0.01,0,Wunderground v.1.15,2013-12-09 10:50:00,
2013-12-09 05:55:00,24.3,22.3,30.34,WNW,300,0.0,0.0,92,0.00,,,0.01,0,Wunderground v.1.15,2013-12-09 10:55:00,
2013-12-09 06:00:00,24.3,22.3,30.34,WNW,300,0.0,0.0,92,0.00,,,0.02,0,Wunderground v.1.15,2013-12-09 11:00:00,
2013-12-09 06:10:00,24.4,22.4,30.33,WNW,300,0.0,0.0,92,0.00,,,0.02,0,Wunderground v.1.15,2013-12-09 11:10:00,
2013-12-09 06:20:00,24.4,22.4,30.32,WNW,300,0.0,0.0,92,0.00,,,0.02,0,Wunderground v.1.15,2013-12-09 11:20:00,
2013-12-09 06:25:00,24.4,22.4,30.32,WNW,300,0.0,0.0,92,0.00,,,0.02,0,Wunderground v.1.15,2013-12-09 11:25:00,
2013-12-09 06:35:00,24.5,22.5,30.31,WNW,300,0.0,1.0,92,0.00,,,0.03,0,Wunderground v.1.15,2013-12-09 11:35:00,
2013-12-09 06:45:00,24.5,22.5,30.31,WNW,300,0.0,0.0,92,0.00,,,0.03,0,Wunderground v.1.15,2013-12-09 11:45:00,
2013-12-09 06:50:00,24.5,22.5,30.30,WNW,300,0.0,0.0,92,0.00,,,0.03,0,Wunderground v.1.15,2013-12-09 11:50:00,
2013-12-09 07:00:00,24.6,22.6,30.30,WNW,300,0.0,0.0,92,0.00,,,0.03,0,Wunderground v.1.15,2013-12-09 12:00:00,
2013-12-09 07:10:00,24.7,22.7,30.29,WNW,300,0.0,0.0,92,0.00,,,0.03,0,Wunderground v.1.15,2013-12-09 12:10:00,
2013-12-09 07:20:00,25.1,23.4,30.28,WNW,300,0.0,0.0,93,0.00,,,0.04,0,Wunderground v.1.15,2013-12-09 12:20:00,
2013-12-09 07:30:00,25.3,23.6,30.27,WNW,300,0.0,0.0,93,0.00,,,0.04,0,Wunderground v.1.15,2013-12-09 12:30:00,
2013-12-09 07:40:00,25.6,23.9,30.26,WNW,300,0.0,0.0,93,0.00,,,0.04,7,Wunderground v.1.15,2013-12-09 12:40:00,
2013-12-09 07:50:00,25.7,24.0,30.25,WNW,300,0.0,0.0,93,0.00,,,0.04,7,Wunderground v.1.15,2013-12-09 12:50:00,
2013-12-09 08:05:00,26.3,24.6,30.25,WNW,300,0.0,0.0,93,0.00,,,0.05,9,Wunderground v.1.15,2013-12-09 13:05:00,
2013-12-09 08:10:00,26.6,24.8,30.25,WNW,300,0.0,0.0,93,0.00,,,0.05,16,Wunderground v.1.15,2013-12-09 13:10:00,
2013-12-09 08:20:00,27.0,25.2,30.26,WNW,300,0.0,0.0,93,0.00,,,0.05,11,Wunderground v.1.15,2013-12-09 13:20:00,
2013-12-09 08:30:00,27.5,26.0,30.23,WNW,300,0.0,0.0,94,0.00,,,0.05,9,Wunderground v.1.15,2013-12-09 13:30:00,
2013-12-09 08:35:00,27.7,25.9,30.23,WNW,300,0.0,0.0,93,0.00,,,0.05,11,Wunderground v.1.15,2013-12-09 13:35:00,
2013-12-09 08:45:00,28.0,26.2,30.22,WNW,300,0.0,0.0,93,0.00,,,0.06,19,Wunderground v.1.15,2013-12-09 13:45:00,
2013-12-09 08:55:00,28.4,26.9,30.23,WNW,300,0.0,1.0,94,0.00,,,0.07,21,Wunderground v.1.15,2013-12-09 13:55:00,
2013-12-09 09:00:00,28.6,27.1,30.22,WNW,300,0.0,0.0,94,0.00,,,0.07,16,Wunderground v.1.15,2013-12-09 14:00:00,
2013-12-09 09:10:00,28.9,27.4,30.21,WNW,300,0.0,0.0,94,0.05,,,0.08,19,Wunderground v.1.15,2013-12-09 14:10:00,
2013-12-09 09:20:00,29.2,27.7,30.21,WNW,300,0.0,0.0,94,0.05,,,0.09,33,Wunderground v.1.15,2013-12-09 14:20:00,
2013-12-09 09:30:00,29.7,28.2,30.21,WNW,300,1.0,1.0,94,0.05,,,0.09,21,Wunderground v.1.15,2013-12-09 14:30:00,
2013-12-09 09:35:00,29.9,28.4,30.21,WNW,300,0.0,1.0,94,0.00,,,0.09,33,Wunderground v.1.15,2013-12-09 14:35:00,
2013-12-09 09:45:00,30.2,28.7,30.20,WNW,300,0.0,0.0,94,0.00,,,0.10,47,Wunderground v.1.15,2013-12-09 14:45:00,
2013-12-09 09:50:00,30.8,29.3,30.20,WNW,300,0.0,0.0,94,0.00,,,0.10,46,Wunderground v.1.15,2013-12-09 14:50:00,
2013-12-09 10:00:00,30.9,29.4,30.21,NW,320,1.0,1.0,94,0.00,,,0.11,16,Wunderground v.1.15,2013-12-09 15:00:00,
2013-12-09 10:10:00,31.0,29.5,30.20,NW,320,0.0,2.0,94,0.05,,,0.12,53,Wunderground v.1.15,2013-12-09 15:10:00,
2013-12-09 10:20:00,30.9,29.4,30.20,NW,320,0.0,1.0,94,0.10,,,0.13,42,Wunderground v.1.15,2013-12-09 15:20:00,
2013-12-09 10:30:00,31.2,29.9,30.19,NW,320,0.0,0.0,95,0.04,,,0.13,54,Wunderground v.1.15,2013-12-09 15:30:00,
2013-12-09 10:35:00,31.3,29.8,30.18,NW,320,0.0,0.0,94,0.04,,,0.14,37,Wunderground v.1.15,2013-12-09 15:35:00,
2013-12-09 10:45:00,31.8,30.5,30.18,NW,320,0.0,0.0,95,0.04,,,0.14,54,Wunderground v.1.15,2013-12-09 15:45:00,
2013-12-09 10:55:00,32.0,30.7,30.16,NW,320,0.0,1.0,95,0.00,,,0.15,79,Wunderground v.1.15,2013-12-09 15:55:00,
2013-12-09 11:00:00,32.4,31.1,30.14,NW,320,0.0,0.0,95,0.00,,,0.15,109,Wunderground v.1.15,2013-12-09 16:00:00,
2013-12-09 11:05:00,32.5,31.2,30.15,NW,320,0.0,0.0,95,0.00,,,0.15,84,Wunderground v.1.15,2013-12-09 16:05:00,
2013-12-09 11:15:00,32.8,31.5,30.13,NW,320,0.0,0.0,95,0.00,,,0.15,100,Wunderground v.1.15,2013-12-09 16:15:00,
2013-12-09 11:25:00,33.3,32.0,30.13,East,96,0.0,0.0,95,0.00,,,0.15,63,Wunderground v.1.15,2013-12-09 16:25:00,
2013-12-09 11:35:00,33.8,32.5,30.12,SSW,211,0.0,1.0,95,0.00,,,0.16,76,Wunderground v.1.15,2013-12-09 16:35:00,
2013-12-09 11:45:00,34.0,32.7,30.10,NE,55,0.0,0.0,95,0.00,,,0.16,113,Wunderground v.1.15,2013-12-09 16:45:00,
2013-12-09 11:55:00,34.4,33.1,30.09,ESE,119,1.0,3.0,95,0.05,,,0.17,160,Wunderground v.1.15,2013-12-09 16:55:00,
2013-12-09 12:00:00,34.5,33.2,30.09,ENE,63,1.0,1.0,95,0.07,,,0.18,137,Wunderground v.1.15,2013-12-09 17:00:00,
2013-12-09 12:10:00,34.6,33.3,30.08,ENE,71,0.0,1.0,95,0.05,,,0.18,79,Wunderground v.1.15,2013-12-09 17:10:00,
2013-12-09 12:20:00,34.7,33.4,30.07,East,79,0.0,0.0,95,0.00,,,0.18,90,Wunderground v.1.15,2013-12-09 17:20:00,
2013-12-09 12:30:00,34.6,33.3,30.05,ENE,73,1.0,2.0,95,0.00,,,0.19,105,Wunderground v.1.15,2013-12-09 17:30:00,
2013-12-09 12:35:00,34.6,33.3,30.05,NE,53,1.0,2.0,95,0.00,,,0.19,91,Wunderground v.1.15,2013-12-09 17:35:00,
2013-12-09 12:45:00,34.7,33.4,30.05,ENE,61,0.0,0.0,95,0.00,,,0.19,63,Wunderground v.1.15,2013-12-09 17:45:00,
2013-12-09 12:55:00,34.8,33.5,30.05,North,350,0.0,0.0,95,0.00,,,0.19,69,Wunderground v.1.15,2013-12-09 17:55:00,
2013-12-09 13:00:00,34.8,33.5,30.05,North,350,0.0,0.0,95,0.00,,,0.20,53,Wunderground v.1.15,2013-12-09 18:00:00,
2013-12-09 13:10:00,34.6,33.3,30.03,North,360,0.0,0.0,95,0.00,,,0.20,63,Wunderground v.1.15,2013-12-09 18:10:00,
2013-12-09 13:20:00,34.7,33.4,30.02,North,360,0.0,0.0,95,0.00,,,0.21,74,Wunderground v.1.15,2013-12-09 18:20:00,
2013-12-09 13:30:00,34.8,33.5,30.01,North,360,0.0,0.0,95,0.00,,,0.21,60,Wunderground v.1.15,2013-12-09 18:30:00,
2013-12-09 13:40:00,34.8,33.5,30.01,North,360,0.0,0.0,95,0.00,,,0.21,53,Wunderground v.1.15,2013-12-09 18:40:00,
2013-12-09 13:50:00,34.8,33.5,30.01,North,360,0.0,0.0,95,0.00,,,0.21,44,Wunderground v.1.15,2013-12-09 18:50:00,
2013-12-09 13:55:00,34.7,33.4,30.00,North,360,0.0,0.0,95,0.00,,,0.21,49,Wunderground v.1.15,2013-12-09 18:55:00,
2013-12-09 14:00:00,34.8,33.8,30.00,North,360,0.0,0.0,96,0.00,,,0.22,40,Wunderground v.1.15,2013-12-09 19:00:00,
2013-12-09 14:10:00,34.7,33.7,29.98,North,360,0.0,0.0,96,0.00,,,0.22,49,Wunderground v.1.15,2013-12-09 19:10:00,
2013-12-09 14:20:00,34.9,33.9,29.98,North,360,0.0,0.0,96,0.00,,,0.22,46,Wunderground v.1.15,2013-12-09 19:20:00,
2013-12-09 14:30:00,35.2,34.2,29.98,North,360,0.0,0.0,96,0.00,,,0.23,32,Wunderground v.1.15,2013-12-09 19:30:00,
2013-12-09 14:40:00,35.1,34.1,29.97,North,360,0.0,0.0,96,0.00,,,0.23,33,Wunderground v.1.15,2013-12-09 19:40:00,
2013-12-09 14:50:00,35.1,34.1,29.97,NW,326,1.0,1.0,96,0.00,,,0.23,25,Wunderground v.1.15,2013-12-09 19:50:00,
2013-12-09 15:00:00,35.0,34.0,29.97,NNW,338,0.0,0.0,96,0.00,,,0.23,19,Wunderground v.1.15,2013-12-09 20:00:00,
2013-12-09 15:10:00,34.8,33.8,29.96,NNW,338,0.0,0.0,96,0.00,,,0.24,25,Wunderground v.1.15,2013-12-09 20:10:00,
2013-12-09 15:20:00,34.7,33.7,29.95,NNW,338,0.0,0.0,96,0.04,,,0.25,21,Wunderground v.1.15,2013-12-09 20:20:00,
2013-12-09 15:30:00,34.6,33.6,29.94,NNW,338,0.0,0.0,96,0.04,,,0.25,14,Wunderground v.1.15,2013-12-09 20:30:00,
2013-12-09 15:35:00,34.6,33.6,29.94,WNW,289,0.0,0.0,96,0.00,,,0.25,16,Wunderground v.1.15,2013-12-09 20:35:00,
2013-12-09 15:45:00,34.5,33.5,29.94,WNW,289,0.0,2.0,96,0.00,,,0.25,7,Wunderground v.1.15,2013-12-09 20:45:00,
2013-12-09 15:55:00,34.3,33.3,29.94,WNW,297,1.0,1.0,96,0.00,,,0.25,0,Wunderground v.1.15,2013-12-09 20:55:00,
2013-12-09 16:00:00,34.2,33.2,29.93,WNW,297,1.0,1.0,96,0.00,,,0.25,0,Wunderground v.1.15,2013-12-09 21:00:00,
2013-12-09 16:10:00,33.9,32.9,29.92,WNW,297,0.0,0.0,96,0.00,,,0.25,0,Wunderground v.1.15,2013-12-09 21:10:00,
2013-12-09 16:20:00,33.9,32.9,29.93,WNW,297,0.0,0.0,96,0.00,,,0.25,0,Wunderground v.1.15,2013-12-09 21:20:00,
2013-12-09 16:30:00,33.6,32.6,29.92,NNW,339,1.0,1.0,96,0.00,,,0.25,0,Wunderground v.1.15,2013-12-09 21:30:00,
2013-12-09 16:35:00,33.3,32.3,29.92,NNW,339,1.0,1.0,96,0.00,,,0.25,0,Wunderground v.1.15,2013-12-09 21:35:00,
2013-12-09 16:45:00,33.3,32.3,29.92,WNW,299,0.0,0.0,96,0.00,,,0.25,0,Wunderground v.1.15,2013-12-09 21:45:00,
2013-12-09 16:55:00,33.2,32.2,29.91,WNW,299,0.0,0.0,96,0.00,,,0.25,0,Wunderground v.1.15,2013-12-09 21:55:00,
2013-12-09 17:00:00,33.2,32.2,29.91,WNW,299,0.0,0.0,96,0.00,,,0.25,0,Wunderground v.1.15,2013-12-09 22:00:00,
2013-12-09 17:10:00,33.2,32.2,29.90,WNW,299,0.0,0.0,96,0.00,,,0.25,0,Wunderground v.1.15,2013-12-09 22:10:00,
2013-12-09 17:20:00,33.2,32.2,29.89,WNW,299,0.0,0.0,96,0.00,,,0.25,0,Wunderground v.1.15,2013-12-09 22:20:00,
2013-12-09 17:25:00,33.1,32.1,29.90,WNW,299,0.0,0.0,96,0.00,,,0.25,0,Wunderground v.1.15,2013-12-09 22:25:00,
2013-12-09 17:35:00,33.2,32.2,29.90,West,281,0.0,0.0,96,0.00,,,0.25,0,Wunderground v.1.15,2013-12-09 22:35:00,
2013-12-09 17:45:00,33.2,32.2,29.89,WSW,248,0.0,1.0,96,0.00,,,0.26,0,Wunderground v.1.15,2013-12-09 22:45:00,
2013-12-09 17:55:00,33.0,32.0,29.89,NW,321,0.0,0.0,96,0.00,,,0.26,0,Wunderground v.1.15,2013-12-09 22:55:00,
2013-12-09 18:00:00,33.0,32.0,29.89,NW,321,0.0,1.0,96,0.00,,,0.26,0,Wunderground v.1.15,2013-12-09 23:00:00,
2013-12-09 18:10:00,33.0,32.0,29.89,NNW,337,1.0,4.0,96,0.00,,,0.26,0,Wunderground v.1.15,2013-12-09 23:10:00,
2013-12-09 18:20:00,33.0,32.0,29.89,North,355,2.0,2.0,96,0.00,,,0.26,0,Wunderground v.1.15,2013-12-09 23:20:00,
2013-12-09 18:30:00,32.8,31.8,29.89,NNW,347,1.0,1.0,96,0.00,,,0.26,0,Wunderground v.1.15,2013-12-09 23:30:00,
2013-12-09 18:40:00,32.8,31.8,29.89,NNW,333,0.0,0.0,96,0.00,,,0.26,0,Wunderground v.1.15,2013-12-09 23:40:00,
2013-12-09 18:50:00,32.8,31.8,29.89,NW,317,1.0,2.0,96,0.00,,,0.26,0,Wunderground v.1.15,2013-12-09 23:50:00,
2013-12-09 19:00:00,32.7,31.7,29.88,NW,317,0.0,0.0,96,0.00,,,0.26,0,Wunderground v.1.15,2013-12-10 00:00:00,
2013-12-09 19:10:00,32.8,31.8,29.88,NW,324,0.0,0.0,96,0.00,,,0.26,0,Wunderground v.1.15,2013-12-10 00:10:00,
2013-12-09 19:20:00,32.7,31.7,29.88,NW,325,0.0,1.0,96,0.00,,,0.26,0,Wunderground v.1.15,2013-12-10 00:20:00,
2013-12-09 19:25:00,32.7,31.7,29.88,NW,325,0.0,1.0,96,0.00,,,0.26,0,Wunderground v.1.15,2013-12-10 00:25:00,
2013-12-09 19:35:00,32.7,31.7,29.87,NW,325,0.0,0.0,96,0.00,,,0.26,0,Wunderground v.1.15,2013-12-10 00:35:00,
2013-12-09 19:45:00,32.7,31.7,29.87,NW,325,0.0,0.0,96,0.00,,,0.27,0,Wunderground v.1.15,2013-12-10 00:45:00,
2013-12-09 19:55:00,32.6,31.6,29.88,WNW,299,1.0,1.0,96,0.00,,,0.27,0,Wunderground v.1.15,2013-12-10 00:55:00,
2013-12-09 20:00:00,32.6,31.6,29.88,WNW,293,1.0,1.0,96,0.00,,,0.27,0,Wunderground v.1.15,2013-12-10 01:00:00,
2013-12-09 20:10:00,32.6,31.6,29.88,NNW,339,0.0,0.0,96,0.00,,,0.27,0,Wunderground v.1.15,2013-12-10 01:10:00,
2013-12-09 20:20:00,32.6,31.6,29.88,NW,319,0.0,0.0,96,0.00,,,0.27,0,Wunderground v.1.15,2013-12-10 01:20:00,
2013-12-09 20:30:00,32.5,31.5,29.88,NW,319,0.0,0.0,96,0.00,,,0.27,0,Wunderground v.1.15,2013-12-10 01:30:00,
2013-12-09 20:40:00,32.5,31.5,29.88,NW,319,0.0,0.0,96,0.00,,,0.27,0,Wunderground v.1.15,2013-12-10 01:40:00,
2013-12-09 20:50:00,32.5,31.5,29.87,NW,319,0.0,0.0,96,0.00,,,0.27,0,Wunderground v.1.15,2013-12-10 01:50:00,
2013-12-09 21:00:00,32.4,31.4,29.87,NW,319,0.0,0.0,96,0.00,,,0.27,0,Wunderground v.1.15,2013-12-10 02:00:00,
2013-12-09 21:10:00,32.3,31.3,29.87,NW,319,0.0,0.0,96,0.00,,,0.27,0,Wunderground v.1.15,2013-12-10 02:10:00,
2013-12-09 21:20:00,32.3,31.3,29.87,NW,319,0.0,0.0,96,0.00,,,0.27,0,Wunderground v.1.15,2013-12-10 02:20:00,
2013-12-09 21:25:00,32.2,31.2,29.87,NW,319,0.0,1.0,96,0.00,,,0.27,0,Wunderground v.1.15,2013-12-10 02:25:00,
2013-12-09 21:35:00,32.3,31.3,29.88,NW,319,1.0,1.0,96,0.00,,,0.27,0,Wunderground v.1.15,2013-12-10 02:35:00,
2013-12-09 21:45:00,32.2,31.2,29.88,NW,319,0.0,1.0,96,0.00,,,0.27,0,Wunderground v.1.15,2013-12-10 02:45:00,
2013-12-09 21:55:00,32.2,31.2,29.88,NW,319,0.0,3.0,96,0.00,,,0.27,0,Wunderground v.1.15,2013-12-10 02:55:00,
2013-12-09 22:00:00,32.2,31.2,29.88,NW,319,1.0,1.0,96,0.00,,,0.27,0,Wunderground v.1.15,2013-12-10 03:00:00,
2013-12-09 22:10:00,32.1,31.1,29.89,NW,319,1.0,1.0,96,0.00,,,0.27,0,Wunderground v.1.15,2013-12-10 03:10:00,
2013-12-09 22:20:00,32.0,31.0,29.88,NW,319,0.0,0.0,96,0.00,,,0.27,0,Wunderground v.1.15,2013-12-10 03:20:00,
2013-12-09 22:30:00,31.9,30.9,29.88,NW,319,0.0,0.0,96,0.00,,,0.27,0,Wunderground v.1.15,2013-12-10 03:30:00,
2013-12-09 22:40:00,31.8,30.8,29.89,NW,319,0.0,0.0,96,0.00,,,0.27,0,Wunderground v.1.15,2013-12-10 03:40:00,
2013-12-09 22:50:00,31.8,30.8,29.88,NW,319,0.0,0.0,96,0.00,,,0.27,0,Wunderground v.1.15,2013-12-10 03:50:00,
2013-12-09 23:00:00,31.7,30.9,29.87,NW,318,0.0,0.0,97,0.00,,,0.27,0,Wunderground v.1.15,2013-12-10 04:00:00,
2013-12-09 23:10:00,31.7,30.9,29.87,South,184,0.0,0.0,97,0.00,,,0.27,0,Wunderground v.1.15,2013-12-10 04:10:00,
2013-12-09 23:15:00,31.6,30.6,29.87,South,184,0.0,0.0,96,0.00,,,0.27,0,Wunderground v.1.15,2013-12-10 04:15:00,
2013-12-09 23:25:00,31.6,30.6,29.87,South,184,0.0,0.0,96,0.00,,,0.27,0,Wunderground v.1.15,2013-12-10 04:25:00,
2013-12-09 23:35:00,31.5,30.5,29.88,South,184,0.0,0.0,96,0.00,,,0.27,0,Wunderground v.1.15,2013-12-10 04:35:00,
2013-12-09 23:45:00,31.4,30.6,29.88,South,184,0.0,0.0,97,0.00,,,0.27,0,Wunderground v.1.15,2013-12-10 04:45:00,
2013-12-09 23:55:00,31.3,30.5,29.87,South,184,0.0,0.0,97,0.00,,,0.27,0,Wunderground v.1.15,2013-12-10 04:55:00,